TimeCST,TemperatureF,Dew PointF,Humidity,Sea Level PressureIn,VisibilityMPH,Wind Direction,Wind SpeedMPH,Gust SpeedMPH,PrecipitationIn,Events,Conditions,WindDirDegrees,DateUTC
12:52 AM,50.0,41.0,71,29.87,10.0,SSW,12.7,-,N/A,,Clear,200,2013-01-11 06:52:00
1:52 AM,50.0,41.0,71,29.86,10.0,SSW,17.3,-,N/A,,Clear,200,2013-01-11 07:52:00
2:52 AM,51.1,41.0,68,29.84,10.0,South,15.0,-,N/A,,Clear,190,2013-01-11 08:52:00
3:52 AM,51.1,41.0,68,29.83,10.0,South,16.1,24.2,N/A,,Clear,190,2013-01-11 09:52:00
4:52 AM,50.0,41.0,71,29.81,10.0,SSW,17.3,24.2,N/A,,Clear,200,2013-01-11 10:52:00
5:52 AM,51.1,39.9,66,29.79,10.0,South,19.6,26.5,N/A,,Clear,180,2013-01-11 11:52:00
6:52 AM,52.0,41.0,66,29.81,10.0,South,16.1,23.0,N/A,,Clear,190,2013-01-11 12:52:00
7:52 AM,51.1,41.0,68,29.81,10.0,South,15.0,28.8,N/A,,Clear,170,2013-01-11 13:52:00
8:52 AM,53.1,44.1,71,29.83,10.0,South,23.0,29.9,N/A,,Clear,190,2013-01-11 14:52:00
9:52 AM,55.0,48.0,77,29.82,10.0,SSW,26.5,35.7,N/A,,Clear,200,2013-01-11 15:52:00
10:52 AM,59.0,50.0,72,29.80,10.0,South,25.3,35.7,N/A,,Clear,190,2013-01-11 16:52:00
11:52 AM,62.1,51.1,67,29.79,10.0,South,18.4,26.5,N/A,,Clear,190,2013-01-11 17:52:00
12:52 PM,68.0,50.0,52,29.73,10.0,SSW,25.3,33.4,N/A,,Clear,200,2013-01-11 18:52:00
1:52 PM,71.1,48.0,44,29.70,10.0,SSW,21.9,31.1,N/A,,Clear,200,2013-01-11 19:52:00
2:52 PM,70.0,48.0,46,29.70,10.0,SSW,15.0,27.6,N/A,,Clear,200,2013-01-11 20:52:00
3:52 PM,71.1,46.0,41,29.69,10.0,SSW,20.7,28.8,N/A,,Clear,210,2013-01-11 21:52:00
4:52 PM,69.1,46.9,45,29.72,10.0,SSW,10.4,-,N/A,,Clear,200,2013-01-11 22:52:00
5:52 PM,64.9,46.9,52,29.72,10.0,South,6.9,-,N/A,,Clear,190,2013-01-11 23:52:00
6:52 PM,60.1,48.0,64,29.73,10.0,ESE,3.5,-,N/A,,Clear,120,2013-01-12 00:52:00
7:52 PM,62.1,46.9,58,29.75,10.0,South,12.7,-,N/A,,Clear,180,2013-01-12 01:52:00
8:52 PM,61.0,48.0,62,29.75,10.0,South,9.2,-,N/A,,Clear,190,2013-01-12 02:52:00
9:52 PM,61.0,48.0,62,29.76,10.0,SSW,6.9,-,N/A,,Clear,200,2013-01-12 03:52:00
10:52 PM,59.0,48.9,69,29.77,10.0,SSE,4.6,-,N/A,,Clear,160,2013-01-12 04:52:00
11:52 PM,61.0,50.0,67,29.74,10.0,South,9.2,-,N/A,,Partly Cloudy,170,2013-01-12 05:52:00